GEFSCGP_con_prob3kmehi_216.txt.gz
EHI
0 0 0 0 0 0 0 0 0 0 0 0 0 0 1 4 5 4 4 6 6 4 2 2 4 5 8 14 16 14 11 12 12 11 9 7 5 4 3 2 2 1 0 0
0 0 0 0 0 0 0 0 0 0 0 0 0 0 1 3 4 4 5 6 7 7 5 6 8 10 13 17 18 15 14 15 14 11 9 8 5 4 3 1 1 0 0 0
0 0 0 0 0 0 0 0 0 0 0 0 0 0 1 1 3 4 5 7 9 10 10 11 13 15 18 21 20 18 18 19 17 13 10 7 5 4 2 1 1 1 0 0
0 0 0 0 0 0 0 0 0 0 0 0 0 0 1 1 2 4 6 8 11 12 13 14 17 20 23 23 22 21 23 24 22 17 12 9 6 4 3 3 3 3 1 1
0 0 0 0 0 0 0 0 0 0 0 0 0 0 1 1 1 3 6 8 11 14 15 16 18 22 23 22 22 24 27 29 29 24 17 13 9 7 5 4 4 4 3 2
0 0 0 0 0 0 0 0 0 0 0 0 0 0 0 0 0 1 4 7 12 16 17 17 18 21 23 22 21 24 30 35 34 29 22 17 15 12 8 6 5 4 3 2
0 0 0 0 0 0 0 0 0 0 1 0 0 0 0 0 0 1 3 7 12 16 18 18 20 23 26 26 25 26 33 37 35 30 24 20 17 14 10 7 5 3 3 3
0 0 0 0 0 0 0 0 0 0 0 0 0 0 0 0 1 2 5 8 13 17 19 20 22 26 29 30 29 30 36 39 36 32 28 22 17 12 9 7 5 3 3 4
0 0 0 0 0 0 0 0 0 0 0 0 0 0 0 1 2 4 7 11 15 20 21 20 23 27 29 31 31 33 39 41 38 35 32 24 16 10 8 7 5 4 4 4
0 0 0 0 0 0 0 0 0 0 0 0 0 0 1 3 4 6 10 15 19 22 23 22 24 27 28 31 32 33 38 41 39 38 34 26 18 13 12 10 8 6 5 5
0 0 0 0 0 0 0 0 0 0 0 0 0 0 2 5 7 8 11 16 19 21 25 28 30 30 29 31 32 32 35 38 38 37 35 30 24 20 17 13 10 9 9 8
0 0 0 0 0 0 0 0 0 0 0 0 0 1 3 7 9 10 13 16 18 22 28 35 40 38 33 33 34 35 37 39 39 39 38 33 29 26 22 17 13 13 13 12
0 0 0 0 0 0 0 0 0 0 0 0 0 1 4 8 10 13 16 18 20 25 33 40 47 48 42 40 41 42 43 43 44 45 42 36 31 30 27 23 20 17 16 15
0 0 0 0 0 0 0 0 0 0 0 0 0 2 6 9 10 14 17 19 21 27 36 44 53 56 53 52 51 49 49 49 50 50 46 40 36 34 32 31 27 22 18 16
0 0 0 0 0 0 0 0 0 0 0 0 1 3 7 9 11 13 17 19 21 27 37 46 54 60 62 62 59 56 54 55 56 55 53 49 43 38 36 34 29 23 18 17
0 0 0 0 0 0 0 0 0 0 1 1 1 4 6 9 13 16 18 21 23 28 37 45 53 62 68 68 65 62 60 60 62 63 61 56 50 42 37 33 27 20 16 16
0 0 0 0 0 0 0 1 1 1 3 3 4 5 5 8 14 19 21 23 26 30 38 45 51 60 67 71 69 65 63 64 66 67 63 57 51 44 37 31 26 20 15 14
0 0 0 0 0 0 1 2 2 3 4 6 7 7 5 7 12 17 21 26 31 36 42 48 52 57 63 68 69 67 65 65 66 65 60 54 48 43 38 34 28 21 16 13
0 0 0 0 0 0 1 2 3 4 5 7 7 7 6 6 8 13 21 30 38 44 47 51 54 56 61 65 68 70 68 66 65 61 56 51 45 40 38 35 29 21 16 14
0 0 0 0 0 1 2 3 3 4 5 6 6 6 8 8 9 15 26 36 45 50 52 53 54 58 63 66 69 72 72 69 63 58 54 50 44 38 35 33 28 20 15 14
1 0 0 0 1 2 4 4 4 6 7 7 6 9 12 14 17 23 33 43 51 54 54 52 55 61 66 67 69 72 72 68 61 56 53 50 43 35 31 30 27 20 15 14
1 1 1 1 1 2 3 5 6 9 11 11 11 14 17 20 23 28 35 44 53 57 55 51 53 60 65 65 67 69 69 65 58 54 53 50 42 34 29 28 25 19 16 14
3 3 2 2 2 3 5 7 9 13 16 16 16 18 20 22 25 29 33 41 51 56 55 49 47 52 58 59 61 63 64 61 55 50 49 46 40 33 29 26 23 18 14 12
5 5 4 3 3 6 10 13 13 15 19 20 19 18 19 21 25 27 31 37 46 51 49 43 41 44 48 51 53 56 58 56 50 46 45 42 38 33 29 26 22 16 12 10
7 7 6 5 5 8 12 15 15 16 19 22 21 20 19 19 22 25 28 34 40 43 41 37 37 39 42 45 47 49 49 47 44 41 41 39 35 31 27 23 18 12 8 7
7 7 7 6 6 9 12 15 15 15 18 23 24 22 20 19 21 24 27 32 36 37 37 35 35 36 38 42 45 45 42 40 38 37 38 36 32 28 24 20 14 9 6 5

GEFSCGP_con_prob3kmehi_222.txt.gz
EHI
0 0 0 0 0 0 0 0 0 0 0 1 0 0 1 2 2 4 7 11 19 25 28 30 31 33 38 45 49 46 44 43 36 29 26 21 15 12 14 17 19 17 15 14
0 0 0 0 0 0 0 0 0 0 0 1 1 1 2 2 2 3 6 12 19 26 33 39 40 39 43 48 52 50 48 45 40 33 28 24 17 14 15 21 24 20 15 14
0 0 0 0 0 0 0 0 0 0 0 1 1 1 2 2 1 1 4 11 18 26 37 47 50 48 47 51 54 54 54 50 44 37 31 25 21 18 19 26 29 24 16 13
0 0 0 0 0 0 0 0 0 0 0 0 0 0 1 1 0 1 3 8 15 24 35 47 53 53 51 51 54 59 60 54 47 40 33 28 25 23 24 27 31 26 17 12
0 0 0 0 0 0 0 0 0 0 0 0 0 0 0 0 1 1 2 6 12 21 32 43 50 54 52 51 55 63 66 61 53 46 39 32 28 26 25 27 29 27 20 15
0 0 0 0 0 0 0 0 0 0 0 0 0 0 0 1 1 1 2 6 12 21 32 42 49 53 52 49 53 63 68 66 60 52 44 35 28 26 25 25 26 25 22 21
0 0 0 0 0 0 0 0 0 0 0 0 0 0 0 1 1 1 3 7 13 22 33 44 52 55 53 49 54 64 70 68 62 55 46 38 32 29 27 25 23 21 21 23
0 0 0 0 0 0 0 0 0 0 0 0 0 0 0 1 1 2 4 9 16 24 33 44 53 56 55 55 62 72 76 70 62 55 48 43 40 34 29 26 23 20 18 19
0 0 0 0 0 0 0 0 0 0 0 0 0 0 1 1 2 3 5 10 17 25 33 40 47 52 55 62 71 79 81 75 67 60 54 49 46 41 35 31 28 25 21 19
0 0 0 0 0 0 0 0 0 0 0 0 0 1 1 1 2 2 5 10 17 24 30 36 40 46 54 64 74 80 82 78 72 67 60 55 53 49 44 39 36 33 28 24
0 0 0 0 0 0 0 0 0 0 0 0 0 1 1 2 2 3 6 11 17 23 29 36 41 46 55 64 73 79 81 78 74 69 65 62 61 58 52 47 42 37 32 28
0 0 0 0 0 0 0 0 0 0 0 0 1 2 3 4 5 8 12 16 21 27 34 43 50 54 60 66 72 78 79 76 74 72 70 69 67 65 60 53 45 39 34 31
0 0 0 0 0 0 0 0 0 0 0 0 1 4 5 7 11 15 19 22 27 35 42 50 59 66 69 71 74 76 75 75 75 75 75 74 72 70 66 59 51 45 41 37
0 0 0 0 0 0 0 0 0 0 0 0 2 5 8 11 15 19 22 25 32 42 48 56 68 77 79 78 77 75 73 73 76 77 78 78 75 73 69 62 55 52 48 45
0 0 0 0 0 0 0 0 0 0 0 1 3 6 10 13 16 20 24 29 35 43 50 61 73 83 85 81 76 73 71 73 76 78 79 79 76 72 66 59 54 52 50 46
0 0 0 0 0 0 0 0 0 1 1 1 3 6 10 14 18 24 30 35 39 44 52 63 75 85 88 83 76 74 74 75 76 77 78 78 75 67 60 53 50 49 46 42
0 0 0 0 0 0 0 1 1 2 3 3 5 6 10 14 21 32 40 43 44 49 58 66 75 85 88 83 79 78 78 77 76 76 77 77 73 64 55 49 46 44 42 39
1 1 0 0 0 0 1 2 3 3 4 5 6 7 10 14 21 33 43 45 48 55 64 68 70 76 80 79 79 79 79 78 79 79 78 77 74 65 54 46 43 42 38 35
1 2 1 0 0 1 2 3 3 4 5 6 7 9 11 13 19 30 39 44 50 59 65 65 63 65 70 73 77 80 81 81 82 80 78 76 75 67 55 46 42 39 35 33
1 2 1 0 0 1 3 4 3 4 7 9 11 12 15 17 22 31 39 42 49 57 61 59 58 62 68 72 76 79 80 80 80 77 75 75 75 66 54 46 41 36 32 30
0 0 0 0 1 2 4 5 8 13 18 19 17 17 20 25 31 36 38 40 46 52 54 55 58 65 71 73 74 75 74 74 74 72 70 71 69 62 52 46 41 36 31 29
1 1 1 1 3 7 12 14 19 27 31 27 22 20 22 27 34 37 37 39 44 47 50 54 60 66 69 70 70 70 70 70 69 68 65 63 60 56 50 45 42 40 34 29
3 4 4 3 6 14 19 22 26 30 30 27 23 20 20 25 32 37 40 43 45 46 48 52 57 62 66 67 66 67 69 69 67 64 60 55 54 54 50 45 44 42 35 30
3 4 6 7 10 14 17 19 20 21 20 19 19 19 20 24 29 35 41 44 45 46 47 49 53 58 64 65 64 65 68 68 65 59 54 51 51 52 50 46 43 39 33 29
2 3 6 9 11 12 12 12 13 15 16 16 18 21 22 23 26 33 39 41 43 43 44 47 51 56 59 61 61 61 63 64 62 56 50 47 46 46 47 44 38 32 27 24
1 2 5 9 12 14 13 11 11 14 16 18 21 24 25 24 26 31 35 39 40 41 42 46 50 52 54 56 57 57 58 60 60 55 49 44 41 42 44 41 34 26 20 17

GEFSCGP_con_prob3kmehi_228.txt.gz
EHI
0 0 0 0 0 0 0 0 0 0 1 0 0 0 1 2 5 9 12 10 8 9 15 21 23 22 19 16 12 10 9 8 8 8 7 5 4 6 7 6 5 4 4 4
0 0 0 0 0 0 0 0 0 0 1 0 0 0 0 1 4 9 11 11 10 12 18 23 25 24 23 21 16 14 14 13 11 9 7 5 4 5 6 6 5 4 4 5
0 0 0 0 0 0 0 0 0 0 0 0 0 0 0 1 4 8 10 11 13 17 22 27 28 29 30 28 23 20 21 22 18 12 9 7 6 5 5 5 5 5 5 5
0 0 0 0 0 0 0 0 0 0 0 0 0 0 0 1 5 8 9 10 14 20 25 29 32 36 37 34 29 26 26 27 25 19 14 11 9 6 4 4 5 5 5 5
0 0 0 0 0 0 0 0 0 0 0 0 0 0 0 1 4 7 9 11 16 22 26 28 33 39 40 37 32 29 29 30 28 24 19 15 12 7 4 4 4 4 4 5
0 0 0 0 0 0 0 0 0 0 0 0 0 0 0 1 2 5 8 11 16 22 25 26 30 37 43 43 39 34 34 33 30 25 21 17 14 10 8 7 5 4 5 5
0 0 0 0 0 0 0 0 0 0 0 0 0 0 0 1 2 3 7 11 16 20 22 23 26 34 44 49 47 44 41 37 33 28 22 19 17 15 13 12 9 7 6 6
0 0 0 0 0 0 0 0 0 0 0 0 0 0 1 3 4 5 8 13 17 20 20 20 23 32 44 51 52 51 47 42 37 33 27 22 19 18 17 15 12 9 6 6
0 0 0 0 0 0 0 0 0 0 0 0 0 1 3 5 7 8 11 15 19 22 23 23 23 28 40 48 50 52 51 45 41 38 33 26 21 20 20 18 13 8 5 5
0 0 0 0 0 0 0 0 0 0 0 0 0 1 3 4 7 9 12 15 21 25 27 27 26 27 32 42 49 53 52 47 43 41 37 31 26 24 23 20 14 8 5 5
0 0 0 0 0 0 0 0 0 0 0 0 0 1 3 5 7 9 11 15 23 28 29 29 29 29 31 40 51 55 53 50 46 42 39 36 32 28 23 18 15 10 7 6
0 0 0 0 0 0 0 0 0 0 0 0 0 1 3 5 8 10 12 17 25 30 31 32 32 33 35 41 50 56 55 53 50 46 44 41 38 31 23 18 16 13 9 7
0 0 0 0 0 0 0 0 0 0 0 0 0 1 3 6 10 12 14 19 25 29 33 35 34 34 36 41 48 54 56 56 55 54 52 48 43 35 27 22 19 14 9 6
0 0 0 0 0 0 0 0 0 0 0 0 0 2 5 9 12 13 14 18 23 27 31 34 33 33 35 41 47 51 55 58 60 59 58 54 46 40 34 28 21 14 9 8
0 0 0 0 0 0 0 0 1 1 0 0 1 3 7 12 16 17 19 22 26 29 31 32 32 33 34 40 47 50 53 58 62 63 61 55 48 43 38 32 24 16 12 12
0 0 0 0 0 0 0 1 2 2 1 2 2 4 10 17 21 24 27 31 32 33 33 32 33 34 36 41 47 50 53 58 63 66 64 57 51 45 39 33 28 22 18 16
0 0 0 0 0 0 0 1 2 4 5 5 6 10 18 23 24 28 32 36 38 38 38 35 33 35 38 41 46 50 54 58 63 65 65 60 53 46 39 34 32 27 21 18
0 0 0 0 0 0 1 1 2 5 8 8 11 19 25 25 25 27 31 35 37 39 40 37 34 35 38 40 44 49 54 58 60 60 61 59 53 44 38 35 34 29 23 22
0 0 0 0 0 0 1 2 1 3 7 10 15 22 23 23 24 25 26 28 30 34 36 35 33 35 38 41 44 48 53 56 56 54 54 53 49 43 38 35 32 27 24 24
0 0 0 0 0 0 1 2 1 2 6 11 16 18 17 16 17 19 21 24 27 30 31 32 33 34 38 42 45 48 52 54 54 50 49 48 44 39 36 33 28 24 23 24
0 0 0 0 0 0 1 2 2 3 7 12 15 14 13 13 14 17 20 24 29 31 31 34 37 37 39 42 45 48 50 50 50 48 46 44 40 35 31 29 25 21 21 23
0 0 0 0 0 0 1 3 4 5 9 13 14 13 15 17 19 22 25 28 30 32 34 37 40 41 42 43 45 46 47 46 47 47 46 43 38 33 28 26 23 19 19 21
0 0 0 0 0 0 1 3 5 7 10 14 15 15 18 23 26 29 31 31 32 34 36 38 40 41 43 44 45 45 44 44 46 48 47 42 37 33 27 25 22 18 17 19
0 0 1 1 1 1 2 4 6 7 10 15 16 16 20 26 30 31 31 30 31 33 34 36 37 37 38 40 41 40 40 41 44 45 43 40 36 31 26 24 21 17 15 15
0 0 1 2 3 4 4 4 6 6 7 13 15 15 17 22 26 28 28 26 25 27 30 31 31 31 31 31 31 29 30 35 38 38 37 36 35 31 25 21 18 14 11 10
0 0 1 2 4 5 5 4 4 4 5 10 13 14 15 18 21 24 26 24 21 22 26 28 27 26 25 24 23 21 22 28 34 35 33 34 34 31 26 21 15 10 7 6

GEFSCGP_con_prob3kmehi_234.txt.gz
EHI
0 0 0 0 0 0 0 0 0 0 0 0 0 0 0 1 2 1 1 1 3 3 3 2 2 3 4 4 4 5 5 4 4 3 3 3 2 1 0 0 1 1 1 0
0 0 0 0 0 0 0 0 0 0 0 0 0 0 0 1 2 1 1 1 2 3 3 3 4 5 5 4 4 4 5 4 4 4 3 3 1 0 0 0 0 0 0 0
0 0 0 0 0 0 0 0 0 0 0 0 0 0 0 0 1 1 1 1 2 2 2 3 5 6 5 5 5 4 4 4 4 5 4 3 1 0 0 0 0 0 0 0
0 0 0 0 0 0 0 0 0 0 0 0 0 0 0 0 0 0 1 2 3 3 3 4 5 6 7 7 6 5 4 3 4 6 5 3 1 0 0 0 0 0 0 0
0 0 0 0 0 0 0 0 0 0 0 0 0 0 0 0 0 0 1 2 3 4 4 5 6 8 9 9 8 6 4 4 5 5 5 3 1 0 0 0 0 0 0 0
0 0 0 0 0 0 0 0 0 0 0 0 0 0 0 0 0 0 1 1 1 3 4 6 8 10 12 11 9 6 4 3 3 3 4 4 3 2 1 0 0 0 0 0
0 0 0 0 0 0 0 0 0 0 0 0 0 0 0 0 0 1 1 1 1 2 5 8 11 13 13 12 10 7 5 5 4 3 5 6 6 5 4 2 1 0 0 0
0 0 0 0 0 0 0 0 0 0 0 0 0 0 0 0 1 2 2 2 3 4 6 8 11 14 14 12 9 7 7 8 8 8 8 8 7 7 6 4 3 1 1 0
0 0 0 0 0 0 0 0 0 0 0 0 0 0 0 0 2 3 4 4 5 6 7 8 10 12 12 11 8 6 7 9 12 14 14 12 9 8 8 8 6 4 3 2
0 0 0 0 0 0 0 0 0 0 0 0 0 0 0 0 1 4 5 6 7 8 8 8 9 10 10 10 8 7 7 11 15 17 17 15 12 11 13 12 10 8 6 5
0 0 0 0 0 0 0 0 0 0 0 0 0 0 1 1 2 5 7 8 9 10 9 7 8 10 9 9 9 9 10 12 16 19 20 19 16 16 17 15 12 9 7 6
0 0 0 0 0 0 0 0 0 0 0 0 0 1 2 2 3 5 8 10 11 9 7 6 9 11 10 9 10 11 12 15 18 22 24 23 22 21 20 17 14 11 8 5
0 0 0 0 0 0 0 0 0 0 0 0 1 1 3 3 4 6 8 10 9 7 5 5 8 10 10 9 10 11 14 17 21 25 28 27 24 22 21 18 14 10 7 5
0 0 0 0 0 0 0 0 0 0 0 1 2 3 2 3 5 7 7 7 6 6 5 5 7 8 8 9 9 12 15 17 21 27 30 28 25 22 20 18 13 8 6 4
0 0 0 0 0 0 0 0 1 2 2 3 4 3 1 2 4 7 7 6 7 7 7 6 7 7 8 8 10 12 15 17 22 29 30 28 25 21 18 17 14 9 5 4
0 0 0 0 0 0 0 1 3 4 4 4 4 2 1 1 5 9 10 10 10 10 9 8 7 7 8 10 12 14 15 19 26 32 32 29 25 21 17 16 14 10 7 5
0 0 0 0 0 0 0 0 2 3 3 3 2 2 1 3 8 12 14 16 14 12 10 9 8 9 9 12 16 17 18 22 29 34 33 29 25 21 17 15 13 11 9 7
0 0 0 0 0 0 0 0 0 1 3 3 3 4 6 9 13 15 16 18 16 13 11 10 9 10 9 11 16 20 23 26 31 34 33 30 26 21 18 16 13 11 11 10
0 0 0 0 0 0 0 0 0 1 3 3 3 6 12 17 18 16 14 16 17 15 13 12 13 12 10 11 15 22 26 29 32 35 34 31 28 23 20 19 16 13 13 12
0 0 0 0 0 0 0 0 0 1 2 1 2 7 13 18 18 15 13 15 17 15 13 13 14 14 14 15 19 25 30 32 35 36 34 31 29 26 23 21 19 17 15 13
0 0 0 0 0 0 0 0 0 0 0 0 2 7 11 13 12 12 13 15 15 13 11 11 13 15 18 20 24 28 32 33 34 34 32 29 28 27 24 21 19 19 17 15
0 0 0 0 0 0 0 0 0 0 0 1 5 9 11 10 8 9 13 16 15 10 8 9 12 16 19 21 23 26 29 31 30 29 27 25 24 24 24 21 18 18 18 16
0 0 0 0 0 0 0 0 1 1 1 3 7 10 10 9 9 10 12 14 13 10 9 9 10 15 18 19 20 22 24 26 26 24 22 22 22 22 22 21 18 18 18 17
0 0 0 0 0 0 1 1 2 2 1 3 7 9 9 9 9 10 11 11 11 11 12 10 9 11 15 17 18 18 18 20 21 22 21 20 20 21 21 20 18 17 17 17
0 0 0 0 0 0 1 2 2 2 3 4 6 8 8 7 8 10 10 10 11 13 13 12 10 10 13 15 15 14 13 14 17 19 19 19 19 19 19 17 14 13 13 13
0 0 0 0 0 0 1 2 2 3 3 4 5 7 7 7 9 11 11 10 12 14 14 12 10 10 12 14 13 11 10 11 13 15 17 18 18 19 18 15 10 7 7 6

GEFSCGP_con_prob3kmehi_240.txt.gz
EHI
0 0 0 0 0 0 0 0 0 0 0 0 0 0 0 0 0 0 0 1 2 4 5 6 5 6 8 11 16 18 17 15 12 8 5 4 3 2 2 1 1 0 0 0
0 0 0 0 0 0 0 0 0 0 0 0 0 0 0 0 0 0 0 1 2 3 5 6 7 7 9 12 15 18 19 18 15 9 5 4 3 2 1 1 0 0 0 0
0 0 0 0 0 0 0 0 0 0 0 0 0 0 0 0 0 0 0 0 1 2 4 6 8 9 10 12 14 17 20 21 18 12 6 3 3 2 2 2 2 1 1 0
0 0 0 0 0 0 0 0 0 0 0 0 0 0 0 0 0 1 1 0 0 1 2 4 7 9 11 12 14 18 22 25 25 20 12 7 5 3 4 4 5 5 4 2
0 0 0 0 0 0 0 0 0 0 0 0 0 0 0 0 0 1 1 0 0 0 0 1 4 9 12 14 16 20 26 31 33 30 24 18 10 5 5 5 7 8 7 6
0 0 0 0 0 0 0 0 0 0 0 0 0 0 0 0 0 1 1 1 1 1 0 1 4 9 14 16 18 22 30 37 38 36 34 29 21 13 9 8 9 10 8 8
0 0 0 0 0 0 0 0 0 0 0 0 0 0 0 1 1 2 2 2 2 2 2 3 6 10 15 18 19 24 32 38 40 39 37 34 30 22 15 13 13 11 9 8
0 0 0 0 0 0 0 0 0 0 0 0 0 0 0 1 2 3 3 3 3 3 4 7 11 13 16 18 20 25 33 39 40 39 37 35 32 24 18 18 16 14 12 11
0 0 0 0 0 0 0 0 0 0 0 0 0 0 0 1 1 3 3 4 4 4 6 11 15 16 17 17 20 25 33 39 41 40 39 37 33 27 24 23 22 19 19 17
0 0 0 0 0 0 0 0 0 0 0 0 0 0 0 0 1 3 3 4 6 7 9 14 19 21 19 17 19 25 31 38 42 42 41 40 38 35 32 31 28 24 23 23
0 0 0 0 0 0 0 0 0 0 0 0 0 0 0 1 2 4 5 7 9 10 13 16 21 25 24 21 21 25 29 34 39 43 44 44 43 42 41 37 32 28 27 28
0 0 0 0 0 0 0 0 0 0 0 0 0 0 0 1 3 7 11 12 13 14 17 19 23 28 30 28 29 30 30 32 37 42 45 46 46 47 45 40 34 33 34 33
0 0 0 0 0 0 0 0 0 0 0 0 0 0 0 1 4 10 15 17 19 22 23 25 28 32 34 36 38 37 34 32 36 42 45 47 48 48 45 39 35 36 35 33
0 0 0 0 0 0 0 0 0 0 0 0 1 1 1 2 5 12 18 21 24 27 29 32 36 38 40 44 46 44 39 36 37 42 46 48 50 49 46 42 40 39 35 31
0 0 0 0 0 0 0 0 0 0 0 1 2 3 3 4 8 16 22 24 25 29 33 38 41 43 45 49 51 50 47 43 43 45 47 49 50 50 50 48 45 42 38 34
0 0 0 0 0 0 0 1 1 2 1 2 3 4 5 7 12 21 25 25 27 32 37 41 44 46 47 48 51 54 55 52 51 50 50 50 50 51 50 48 44 43 42 38
0 0 0 0 0 0 0 1 2 2 2 2 4 5 6 9 14 21 26 28 32 37 41 42 45 45 43 41 44 49 52 52 53 53 51 49 49 50 48 45 43 43 43 40
0 0 0 0 0 0 0 1 1 1 2 3 5 7 9 10 13 19 26 32 36 39 40 41 40 39 37 36 36 39 43 47 52 54 51 49 49 50 47 44 42 41 40 38
0 0 0 0 0 0 0 1 1 2 4 5 7 9 11 11 12 18 26 31 35 37 38 38 35 32 32 32 34 37 43 48 52 52 51 51 50 49 45 41 39 37 35 34
0 0 0 0 0 0 1 1 2 3 6 8 10 12 14 15 15 20 25 28 31 34 36 36 35 32 31 32 36 41 47 51 51 48 48 49 48 45 42 39 36 34 32 30
0 0 0 0 0 1 1 1 3 5 9 12 13 15 18 22 23 25 26 27 29 31 33 35 36 35 33 34 37 41 45 47 47 43 42 43 41 37 37 36 35 33 30 28
0 0 0 0 0 1 1 3 7 11 13 15 15 16 21 26 28 27 25 26 28 29 30 32 33 34 33 34 37 38 38 39 39 38 38 36 33 31 31 33 32 30 27 24
1 1 1 0 1 2 4 8 12 13 14 15 15 17 21 25 27 27 26 27 28 28 28 29 30 29 28 29 33 34 32 30 32 35 34 31 28 28 29 31 31 28 24 20
2 2 2 1 2 5 10 13 14 12 10 12 13 14 18 22 26 28 28 27 27 27 27 27 28 26 22 22 26 29 27 25 27 30 31 29 27 27 29 31 30 26 21 18
2 3 4 3 4 8 11 14 13 11 9 10 11 11 14 18 23 25 25 23 22 24 24 25 25 22 18 17 19 22 23 24 25 25 26 25 24 25 27 27 24 20 17 15
2 3 5 5 7 9 11 11 12 12 11 12 11 10 12 16 20 22 21 18 17 20 22 22 22 20 16 15 17 19 21 26 27 23 22 22 21 22 23 23 19 13 12 11